SCP
-0 -0 0 0 0 0 0 0 0 0 0 0 0 -0 -0 -0 -0 0 0 0 -0 -0 -0 -0 -0 0 0 0 0 0 0 0 0 0 0 0 0 0 0 0 0 0 0 0 0
-0 -0 -0 0 0 0 0 0 0 0 0 -0 -0 -0 -0 -0 -0 0 -0 -0 -0 -0 0 0 0 -0 0 0 0 0 0 0 0 0 0 0 0 0 0 0 0 0 0 0 0
-0 -0 -0 -0 0 0 0 0 0 0 -0 -0 -0 -0 -0 -0 0 0 -0 -0 -0 -0 0 0 0 -0 0 0 0 0 0 0 0 0 0 0 0 0 0 0 0 0 0 0 0
-0 -0 -0 -0 0 -0 -0 -0 -0 -0 -0 -0 -0 -0 -0 -0 0 -0 -0 -0 -0 -0 -0 -0 0 0 0 0 0 0 0 0 0 0 0 0 0 0 0 0 0 0 0 0 0
-0 -0 0 0 -0 -0 -0 -0 -0 -0 -0 -0 -0 -0 -0 -0 0 -0 -0 -0 -0 -0 -0 0 0 0 0 0 -0 -0 0 0 0 0 0 0 0 0 0 0 0 0 0 0 0
-0 -0 0 -0 -0 -0 -0 -0 -0 -0 -0 -0 -0 -0 -0 0 -0 -0 -0 -0 -0 -0 0 0 0 0 0 0 0 0 0 0 -0 0 0 0 0 0 0 0 0 0 0 0 0
-0 -0 0 -0 -0 -0 -0 -0 -0 -0 -0 -0 -0 -0 0 0 0 0 0 0 0 0 0 0 0 0 0 0 0 0 0 0 -0 0 0 0 0 -0 -0 0 0 0 0 0 0
-0 0 0 -0 -0 -0 -0 -0 -0 -0 -0 -0 -0 -0 0 0 0 0 0 0 0 0 0 0 0 0 0 0 0 -0 0 0 0 0 0 0 0 0 0 0 0 0 0 0 0
-0 0 0 -0 -0 -0 -0 -0 -0 -0 0 0 0 -0 0 0 0 0 0 0 0 0 0 0 0 0 0 0 0 0 0 0 0 0 0 0 0 0 0 0 0 0 0 0 0
0 0 0 -0 -0 0 -0 -0 0 0 0 0 0 0 0 0 0 0 0 0 0 0 0 0 0 0 0 0 0 0 0 0 0 0 0 0 0 0 0 0 0 0 0 0 0
-0 0 -0 -0 -0 0 0 0 0 0 0 0 0 0 0 0 0 0 0 0 0 0 0 0 0 0 0 0 0 0 0 0 0 0 0 0 0 0 0 0 0 0 0 0 0
-0 -0 -0 -0 -0 0 0 0 0 0 0 0 0 0 0 0 0 0 0 0 0 0 0 0 0 0 0 0 0 0 0 0 0 0 0 0 0 0 0 0 0 0 0 0 0
-0 0 -0 -0 -0 0 0 0 -0 0 0 0 0 0 0 0 0 0 0 0 0 0 0 0 0 0 0 0 0 0 0 0 0 0 0 -0 0 0 0 0 -0 0 0 0 0
-0 -0 0 -0 0 0 0 0 -0 0 0 0 0 0 0 0 0 0 0 0 0 0 0 0 0 0 0 0 0 0 0 0 0 -0 -0 0 0 -0 -0 -0 -0 0 0 0 0
-0 0 -0 -0 0 0 0 0 0 0 0 0 0 0 0 0 0 0 0 0 0 0 0 0 0 0 0 0 0 0 0 0 0 0 0 0 0 -0 -0 0 0 0 0 0 0
-0 0 -0 0 0 0 0 0 0 0 0 0 0 0 0 0 0 0 0 0 0 0 0 0 0 0 0 0 0 0 0 0 0 0 0 -0 0 -0 -0 0 0 0 0 0 0
0 0 0 0 0 0 0 0 0 0 0 0 0 0 0 0 0 0 0 0 0 0 0 0 0 0 0 0 0 0 0 0 0 0 0 0 0 -0 0 0 0 0 0 0 0
0 0 0 0 0 0 0 0 0 0 0 0 0 0 0 0 0 0 0 0 0 0 0 0 0 0 0 0 0 0 0 0 0 0 -0 -0 0 0 0 0 0 0 0 0 0
0 0 0 0 0 0 0 0 0 0 0 0 0 0 0 0 0 0 0 0 0 0 0 0 0 0 0 0 0 0 0 0 0 -0 -0 0 0 0 0 0 0 0 0 0 0
0 0 0 -0 0 0 0 0 0 0 0 0 0 0 0 0 0 0 0 0 0 0 0 0 0 0 0 0 0 0 0 0 0 0 0 0 0 0 0 0 0 0 0 0 0
0 0 0 -0 0 0 0 0 0 0 0 0 0 0 0 0 0 0 0 0 0 0 0 0 0 0 0 0 0 0 0 0 0 0 -0 -0 -0 0 0 -0 -0 0 0 0 0
0 0 0 0 0 0 0 0 0 0 0 0 0 0 0 0 0 0 0 0 0 0 0 0 0 0 0 0 0 0 -0 0 0 -0 -0 -0 0 -0 0 0 0 0 0 0 -0
0 0 0 0 0 0 0 0 0 0 0 0 0 0 0 0 0 0 0 0 0 0 0 0 0 0 0 0 0 0 -0 0 -0 -0 0 0 0 -0 -0 0 0 0 0 -0 -0
0 0 0 0 0 0 0 0 0 0 0 0 0 0 0 0 0 0 0 0 0 0 0 0 0 0 0 0 -0 -0 -0 0 0 0 -0 -0 -0 -0 0 -0 0 0 0 0 0
0 0 0 0 0 0 0 0 0 0 0 0 0 0 0 0 0 0 0 0 0 0 0 0 0 0 0 0 0 -0 -0 -0 0 0 -0 -0 -0 -0 -0 0 0 0 0 0 0
0 0 0 0 0 0 0 0 0 0 0 0 0 0 0 0 0 0 0 0 0 0 0 0 0 0 0 0 0 -0 -0 0 0 0 0 0 0 0 0 0 0 0 0 0 0
0 0 0 0 0 0 0 0 0 0 0 0 0 0 0 0 0 0 0 0 0 0 0 0 0 -0 0 -0 -0 0 0 0 0 0 0 0 0 0 0 0 0 0 0 0 0
Wind_Speed_500mb
41 36 31 25 20 18 20 21 22 26 24 23 14 19 28 29 31 26 23 21 23 21 24 11 12 9 11 10 5 4 13 19 22 14 19 11 25 25 23 34 36 35 41 36 27
42 35 33 28 23 20 21 22 24 25 24 25 13 18 26 28 29 28 25 24 21 20 18 16 11 6 6 5 3 9 12 11 11 14 21 24 29 33 31 33 32 33 38 42 39
47 32 29 27 24 22 21 20 28 23 21 21 17 17 21 19 14 19 22 26 28 25 18 19 9 4 8 3 7 2 12 8 22 23 19 30 39 38 36 36 34 27 30 29 27
50 35 26 25 24 22 21 19 25 20 19 18 20 19 20 8 7 4 15 13 17 21 17 20 20 7 6 12 9 17 5 15 24 24 34 38 44 48 48 49 41 42 34 36 37
50 37 21 18 19 19 21 23 23 12 14 17 21 23 24 22 23 11 10 10 10 12 14 16 19 13 12 16 11 13 13 22 32 39 39 35 39 43 56 54 52 49 43 45 45
49 37 19 13 14 17 22 24 18 10 12 18 23 25 15 28 9 7 6 6 7 10 12 14 15 17 10 21 15 20 32 39 37 31 18 27 36 32 35 37 45 44 42 42 42
50 36 18 13 13 18 23 22 11 13 19 25 28 29 24 16 8 12 12 11 13 14 16 14 14 16 25 24 11 33 35 34 33 17 29 42 37 45 31 31 33 40 44 42 41
50 35 19 14 15 21 25 14 13 15 20 20 21 22 18 15 11 14 14 16 14 16 19 20 18 24 23 30 35 36 29 23 24 27 29 22 45 39 40 34 44 41 41 46 44
45 32 22 16 17 24 24 12 15 15 18 14 10 3 13 16 9 10 17 13 13 13 13 15 16 27 30 26 28 30 32 44 52 43 37 40 55 46 44 43 51 56 56 57 52
37 29 21 19 22 26 20 12 15 13 13 9 7 7 10 16 4 11 17 17 13 22 17 11 19 20 25 24 30 42 45 44 48 48 48 53 59 50 62 62 63 64 60 60 58
30 29 19 20 24 29 22 14 1 4 7 4 5 6 4 15 3 8 14 22 17 15 13 17 19 20 29 25 26 33 44 52 52 45 45 54 53 54 56 60 61 61 62 63 63
23 26 18 21 23 24 26 10 8 2 4 2 7 3 7 14 12 9 17 16 16 22 18 23 19 12 21 25 35 43 46 50 48 41 36 49 61 57 51 52 64 63 66 66 64
16 21 17 7 21 18 18 14 8 2 11 7 8 6 7 15 20 11 14 24 18 23 23 21 25 20 24 34 40 37 38 40 44 46 45 49 60 39 36 34 51 65 69 69 71
7 13 18 14 9 20 9 25 2 4 9 12 9 5 7 25 8 17 12 23 23 22 23 18 12 26 34 36 31 34 33 43 46 43 39 39 48 49 43 40 34 44 55 61 61
7 4 14 20 10 11 20 15 4 3 9 7 6 3 18 14 26 7 12 20 30 31 16 16 28 36 33 22 26 37 35 38 49 47 48 49 26 39 33 35 23 17 23 32 40
8 1 9 18 17 17 20 6 2 11 3 3 2 10 23 29 10 20 26 27 34 20 20 31 35 30 20 27 25 38 33 38 50 27 18 30 16 21 18 20 15 9 9 7 27
9 1 6 13 10 21 21 2 9 9 4 5 12 23 34 21 20 18 33 25 15 14 22 39 13 10 18 28 37 31 26 16 9 9 21 20 22 22 35 24 18 19 24 13 11
14 13 4 11 15 21 13 10 8 11 11 17 21 37 24 17 18 26 27 27 9 15 24 20 34 9 18 45 45 36 19 11 16 24 39 40 18 13 34 27 18 19 24 19 11
11 8 5 13 17 19 14 6 9 7 8 19 33 18 9 10 19 23 27 23 7 8 14 26 22 47 36 17 22 18 20 20 14 37 27 18 27 29 8 6 4 11 10 12 4
9 7 11 11 16 4 8 3 4 4 13 16 15 7 23 33 21 28 22 10 16 3 19 24 30 27 15 43 13 21 15 12 7 11 26 23 36 26 9 22 8 4 3 4 6
12 4 13 18 7 3 5 7 10 6 11 9 17 28 29 31 19 33 13 26 15 24 37 30 9 25 45 34 39 21 9 13 9 12 19 30 17 22 15 27 35 7 9 14 14
11 4 20 9 2 5 7 8 11 7 8 16 14 15 15 21 29 16 21 19 32 45 36 19 10 32 46 44 29 23 31 27 11 25 27 25 38 41 30 20 27 39 19 21 23
19 8 15 11 6 7 5 7 9 13 7 10 10 8 17 23 13 14 22 12 53 20 11 5 7 18 27 13 12 22 35 35 35 29 41 27 28 35 35 38 51 52 50 43 38
14 7 8 17 10 9 11 5 10 7 18 9 19 25 14 23 24 23 40 13 30 47 55 47 18 29 30 45 48 53 53 45 36 15 39 38 56 49 49 51 43 49 57 60 65
16 7 6 9 3 15 8 6 14 10 7 20 8 12 20 15 34 42 26 43 50 50 25 10 25 38 45 48 51 57 59 52 41 40 19 41 50 54 51 48 47 63 62 56 61
13 13 13 20 13 15 0 5 13 9 13 9 17 15 25 35 40 53 47 42 31 26 18 8 19 32 48 47 49 53 52 35 26 29 38 45 60 56 47 55 53 54 60 69 70
15 12 12 9 9 10 9 11 15 27 16 23 21 35 34 35 39 53 67 73 54 46 40 18 13 19 39 39 49 31 6 18 29 31 23 37 65 57 49 43 49 65 73 73 74
Wind_Direction_500mb
22 24 25 26 28 30 28 26 26 19 21 16 39 108 109 90 71 64 69 72 65 58 40 38 59 85 79 83 86 226 246 254 261 254 258 253 290 283 286 275 271 263 265 273 293
20 21 26 28 33 35 32 32 26 15 13 12 49 124 126 93 85 64 76 70 62 63 52 47 49 73 82 80 46 284 266 330 351 306 277 289 280 295 290 277 270 267 263 263 267
19 17 20 26 33 34 35 45 27 22 21 30 77 112 149 119 94 52 76 80 73 71 41 34 35 64 55 4 8 327 298 329 279 285 276 282 282 281 273 270 267 264 277 271 248
17 15 16 22 33 41 39 29 15 23 35 60 92 98 124 117 57 100 91 63 57 61 39 37 38 53 356 3 350 285 331 303 297 289 275 275 280 276 265 270 274 268 267 265 260
13 12 13 23 32 34 27 18 7 30 58 88 108 108 96 93 89 115 95 76 56 24 25 18 23 355 1 340 306 266 323 294 291 285 279 283 271 271 271 268 261 260 262 262 263
6 7 10 17 30 24 11 5 8 51 83 104 118 114 93 86 103 82 28 353 322 346 351 356 355 345 288 309 288 324 300 295 287 286 255 275 277 274 271 273 260 257 257 255 257
5 6 10 17 30 22 10 8 49 89 112 108 111 103 75 76 56 16 354 303 291 294 307 312 318 310 319 303 325 295 291 285 267 258 276 301 272 258 252 259 256 259 261 251 255
7 13 27 36 35 22 7 26 82 108 131 127 118 92 80 47 32 354 319 312 289 281 278 279 287 287 278 300 279 274 291 275 300 296 300 267 280 286 278 246 269 263 257 254 253
13 26 36 51 35 14 10 61 91 116 133 129 103 81 79 20 20 0 13 354 315 292 274 263 274 280 286 271 294 275 284 299 300 300 291 277 276 280 274 270 261 266 263 257 250
17 26 38 49 31 21 25 88 88 102 123 98 85 191 67 1 295 1 339 344 314 305 261 249 283 269 267 275 301 313 301 297 293 301 298 286 281 281 277 272 265 263 254 252 251
21 25 51 55 37 37 43 77 284 119 44 41 65 74 27 346 308 332 348 336 320 274 291 318 294 296 325 311 300 295 290 291 291 297 295 287 284 279 278 272 263 261 257 248 249
30 34 65 56 46 40 44 70 42 318 219 104 145 142 351 351 307 311 348 345 317 318 306 288 283 346 300 292 293 295 292 289 298 307 306 296 285 285 281 271 264 259 255 247 246
41 42 45 51 39 28 45 24 3 6 257 182 208 268 341 335 312 302 327 329 313 312 335 301 301 313 292 303 300 294 290 300 305 304 289 284 280 285 287 270 259 254 252 251 243
61 44 34 29 24 8 3 350 324 165 253 141 200 194 301 328 257 299 305 328 304 316 324 290 311 299 307 302 309 302 315 305 295 300 296 307 291 292 288 281 270 265 252 247 239
9 10 22 20 7 359 341 -0 109 161 269 85 151 255 320 323 313 104 309 309 304 318 277 270 313 315 305 310 318 299 306 302 289 286 287 282 267 290 281 272 289 274 257 244 230
360 289 356 15 20 1 356 11 127 234 218 141 281 296 313 333 301 301 308 305 292 293 277 272 278 276 294 309 290 302 291 296 280 276 276 279 309 301 316 345 337 346 26 328 220
315 220 14 25 9 357 350 304 256 270 131 37 328 323 319 309 296 320 321 314 309 309 312 315 264 247 286 302 304 304 310 296 274 223 274 339 293 295 305 318 318 315 296 278 225
331 221 314 360 357 352 339 257 267 45 348 344 318 310 297 358 322 323 307 309 310 281 311 313 314 354 317 304 296 297 298 271 296 308 305 313 280 309 331 308 279 300 269 244 230
1 214 3 325 321 335 289 277 2 359 353 321 310 284 284 255 332 316 310 310 313 313 317 317 288 317 303 322 307 308 269 293 283 268 265 251 252 241 198 76 93 49 25 208 193
25 143 350 333 336 326 264 306 279 290 319 301 297 298 316 324 316 332 312 347 318 274 334 298 301 304 287 311 279 238 275 277 222 281 298 294 307 293 17 348 42 84 35 171 192
45 183 338 339 45 281 341 345 302 316 322 294 289 294 301 313 298 313 275 310 14 326 327 312 248 274 301 291 300 279 249 236 274 273 287 299 285 19 341 311 305 317 277 286 289
15 245 346 43 204 7 346 344 330 289 292 287 284 283 301 319 298 288 270 291 329 320 299 322 276 281 298 289 268 285 287 286 262 278 289 290 283 279 292 313 322 303 274 267 276
342 315 349 31 -0 357 340 286 275 299 309 295 285 283 312 294 303 267 274 294 312 320 336 301 265 298 299 293 183 285 302 290 282 280 272 265 271 298 303 300 290 289 281 264 265
347 315 18 49 54 339 337 294 296 279 283 256 281 293 303 293 281 278 291 302 295 303 293 289 260 263 276 289 304 297 293 282 271 265 286 282 290 301 295 290 295 295 290 284 283
7 34 351 323 32 326 286 286 302 313 269 292 268 247 324 287 296 283 290 304 302 298 276 266 275 293 288 288 288 285 287 295 289 276 273 287 290 293 305 310 305 300 294 286 278
2 349 322 293 292 293 166 271 294 295 305 283 276 310 297 286 285 292 296 292 299 293 285 251 285 296 287 286 290 304 303 294 291 286 284 286 289 290 309 299 295 288 280 274 269
11 339 314 294 303 294 339 314 305 313 277 252 301 305 294 289 291 285 285 284 276 278 284 267 261 288 289 302 308 291 356 300 285 290 279 280 290 301 294 292 295 291 283 278 275
Wind_Speed_850mb
41 36 31 25 20 18 20 21 22 26 24 23 14 19 28 29 31 26 23 21 23 21 24 11 12 9 11 10 5 4 13 19 22 14 19 11 25 25 23 34 36 35 41 36 27
42 35 33 28 23 20 21 22 24 25 24 25 13 18 26 28 29 28 25 24 21 20 18 16 11 6 6 5 3 9 12 11 11 14 21 24 29 33 31 33 32 33 38 42 39
47 32 29 27 24 22 21 20 28 23 21 21 17 17 21 19 14 19 22 26 28 25 18 19 9 4 8 3 7 2 12 8 22 23 19 30 39 38 36 36 34 27 30 29 27
50 35 26 25 24 22 21 19 25 20 19 18 20 19 20 8 7 4 15 13 17 21 17 20 20 7 6 12 9 17 5 15 24 24 34 38 44 48 48 49 41 42 34 36 37
50 37 21 18 19 19 21 23 23 12 14 17 21 23 24 22 23 11 10 10 10 12 14 16 19 13 12 16 11 13 13 22 32 39 39 35 39 43 56 54 52 49 43 45 45
49 37 19 13 14 17 22 24 18 10 12 18 23 25 15 28 9 7 6 6 7 10 12 14 15 17 10 21 15 20 32 39 37 31 18 27 36 32 35 37 45 44 42 42 42
50 36 18 13 13 18 23 22 11 13 19 25 28 29 24 16 8 12 12 11 13 14 16 14 14 16 25 24 11 33 35 34 33 17 29 42 37 45 31 31 33 40 44 42 41
50 35 19 14 15 21 25 14 13 15 20 20 21 22 18 15 11 14 14 16 14 16 19 20 18 24 23 30 35 36 29 23 24 27 29 22 45 39 40 34 44 41 41 46 44
45 32 22 16 17 24 24 12 15 15 18 14 10 3 13 16 9 10 17 13 13 13 13 15 16 27 30 26 28 30 32 44 52 43 37 40 55 46 44 43 51 56 56 57 52
37 29 21 19 22 26 20 12 15 13 13 9 7 7 10 16 4 11 17 17 13 22 17 11 19 20 25 24 30 42 45 44 48 48 48 53 59 50 62 62 63 64 60 60 58
30 29 19 20 24 29 22 14 1 4 7 4 5 6 4 15 3 8 14 22 17 15 13 17 19 20 29 25 26 33 44 52 52 45 45 54 53 54 56 60 61 61 62 63 63
23 26 18 21 23 24 26 10 8 2 4 2 7 3 7 14 12 9 17 16 16 22 18 23 19 12 21 25 35 43 46 50 48 41 36 49 61 57 51 52 64 63 66 66 64
16 21 17 7 21 18 18 14 8 2 11 7 8 6 7 15 20 11 14 24 18 23 23 21 25 20 24 34 40 37 38 40 44 46 45 49 60 39 36 34 51 65 69 69 71
7 13 18 14 9 20 9 25 2 4 9 12 9 5 7 25 8 17 12 23 23 22 23 18 12 26 34 36 31 34 33 43 46 43 39 39 48 49 43 40 34 44 55 61 61
7 4 14 20 10 11 20 15 4 3 9 7 6 3 18 14 26 7 12 20 30 31 16 16 28 36 33 22 26 37 35 38 49 47 48 49 26 39 33 35 23 17 23 32 40
8 1 9 18 17 17 20 6 2 11 3 3 2 10 23 29 10 20 26 27 34 20 20 31 35 30 20 27 25 38 33 38 50 27 18 30 16 21 18 20 15 9 9 7 27
9 1 6 13 10 21 21 2 9 9 4 5 12 23 34 21 20 18 33 25 15 14 22 39 13 10 18 28 37 31 26 16 9 9 21 20 22 22 35 24 18 19 24 13 11
14 13 4 11 15 21 13 10 8 11 11 17 21 37 24 17 18 26 27 27 9 15 24 20 34 9 18 45 45 36 19 11 16 24 39 40 18 13 34 27 18 19 24 19 11
11 8 5 13 17 19 14 6 9 7 8 19 33 18 9 10 19 23 27 23 7 8 14 26 22 47 36 17 22 18 20 20 14 37 27 18 27 29 8 6 4 11 10 12 4
9 7 11 11 16 4 8 3 4 4 13 16 15 7 23 33 21 28 22 10 16 3 19 24 30 27 15 43 13 21 15 12 7 11 26 23 36 26 9 22 8 4 3 4 6
12 4 13 18 7 3 5 7 10 6 11 9 17 28 29 31 19 33 13 26 15 24 37 30 9 25 45 34 39 21 9 13 9 12 19 30 17 22 15 27 35 7 9 14 14
11 4 20 9 2 5 7 8 11 7 8 16 14 15 15 21 29 16 21 19 32 45 36 19 10 32 46 44 29 23 31 27 11 25 27 25 38 41 30 20 27 39 19 21 23
19 8 15 11 6 7 5 7 9 13 7 10 10 8 17 23 13 14 22 12 53 20 11 5 7 18 27 13 12 22 35 35 35 29 41 27 28 35 35 38 51 52 50 43 38
14 7 8 17 10 9 11 5 10 7 18 9 19 25 14 23 24 23 40 13 30 47 55 47 18 29 30 45 48 53 53 45 36 15 39 38 56 49 49 51 43 49 57 60 65
16 7 6 9 3 15 8 6 14 10 7 20 8 12 20 15 34 42 26 43 50 50 25 10 25 38 45 48 51 57 59 52 41 40 19 41 50 54 51 48 47 63 62 56 61
13 13 13 20 13 15 0 5 13 9 13 9 17 15 25 35 40 53 47 42 31 26 18 8 19 32 48 47 49 53 52 35 26 29 38 45 60 56 47 55 53 54 60 69 70
15 12 12 9 9 10 9 11 15 27 16 23 21 35 34 35 39 53 67 73 54 46 40 18 13 19 39 39 49 31 6 18 29 31 23 37 65 57 49 43 49 65 73 73 74
Wind_Direction_850mb
22 24 25 26 28 30 28 26 26 19 21 16 39 108 109 90 71 64 69 72 65 58 40 38 59 85 79 83 86 226 246 254 261 254 258 253 290 283 286 275 271 263 265 273 293
20 21 26 28 33 35 32 32 26 15 13 12 49 124 126 93 85 64 76 70 62 63 52 47 49 73 82 80 46 284 266 330 351 306 277 289 280 295 290 277 270 267 263 263 267
19 17 20 26 33 34 35 45 27 22 21 30 77 112 149 119 94 52 76 80 73 71 41 34 35 64 55 4 8 327 298 329 279 285 276 282 282 281 273 270 267 264 277 271 248
17 15 16 22 33 41 39 29 15 23 35 60 92 98 124 117 57 100 91 63 57 61 39 37 38 53 356 3 350 285 331 303 297 289 275 275 280 276 265 270 274 268 267 265 260
13 12 13 23 32 34 27 18 7 30 58 88 108 108 96 93 89 115 95 76 56 24 25 18 23 355 1 340 306 266 323 294 291 285 279 283 271 271 271 268 261 260 262 262 263
6 7 10 17 30 24 11 5 8 51 83 104 118 114 93 86 103 82 28 353 322 346 351 356 355 345 288 309 288 324 300 295 287 286 255 275 277 274 271 273 260 257 257 255 257
5 6 10 17 30 22 10 8 49 89 112 108 111 103 75 76 56 16 354 303 291 294 307 312 318 310 319 303 325 295 291 285 267 258 276 301 272 258 252 259 256 259 261 251 255
7 13 27 36 35 22 7 26 82 108 131 127 118 92 80 47 32 354 319 312 289 281 278 279 287 287 278 300 279 274 291 275 300 296 300 267 280 286 278 246 269 263 257 254 253
13 26 36 51 35 14 10 61 91 116 133 129 103 81 79 20 20 0 13 354 315 292 274 263 274 280 286 271 294 275 284 299 300 300 291 277 276 280 274 270 261 266 263 257 250
17 26 38 49 31 21 25 88 88 102 123 98 85 191 67 1 295 1 339 344 314 305 261 249 283 269 267 275 301 313 301 297 293 301 298 286 281 281 277 272 265 263 254 252 251
21 25 51 55 37 37 43 77 284 119 44 41 65 74 27 346 308 332 348 336 320 274 291 318 294 296 325 311 300 295 290 291 291 297 295 287 284 279 278 272 263 261 257 248 249
30 34 65 56 46 40 44 70 42 318 219 104 145 142 351 351 307 311 348 345 317 318 306 288 283 346 300 292 293 295 292 289 298 307 306 296 285 285 281 271 264 259 255 247 246
41 42 45 51 39 28 45 24 3 6 257 182 208 268 341 335 312 302 327 329 313 312 335 301 301 313 292 303 300 294 290 300 305 304 289 284 280 285 287 270 259 254 252 251 243
61 44 34 29 24 8 3 350 324 165 253 141 200 194 301 328 257 299 305 328 304 316 324 290 311 299 307 302 309 302 315 305 295 300 296 307 291 292 288 281 270 265 252 247 239
9 10 22 20 7 359 341 -0 109 161 269 85 151 255 320 323 313 104 309 309 304 318 277 270 313 315 305 310 318 299 306 302 289 286 287 282 267 290 281 272 289 274 257 244 230
360 289 356 15 20 1 356 11 127 234 218 141 281 296 313 333 301 301 308 305 292 293 277 272 278 276 294 309 290 302 291 296 280 276 276 279 309 301 316 345 337 346 26 328 220
315 220 14 25 9 357 350 304 256 270 131 37 328 323 319 309 296 320 321 314 309 309 312 315 264 247 286 302 304 304 310 296 274 223 274 339 293 295 305 318 318 315 296 278 225
331 221 314 360 357 352 339 257 267 45 348 344 318 310 297 358 322 323 307 309 310 281 311 313 314 354 317 304 296 297 298 271 296 308 305 313 280 309 331 308 279 300 269 244 230
1 214 3 325 321 335 289 277 2 359 353 321 310 284 284 255 332 316 310 310 313 313 317 317 288 317 303 322 307 308 269 293 283 268 265 251 252 241 198 76 93 49 25 208 193
25 143 350 333 336 326 264 306 279 290 319 301 297 298 316 324 316 332 312 347 318 274 334 298 301 304 287 311 279 238 275 277 222 281 298 294 307 293 17 348 42 84 35 171 192
45 183 338 339 45 281 341 345 302 316 322 294 289 294 301 313 298 313 275 310 14 326 327 312 248 274 301 291 300 279 249 236 274 273 287 299 285 19 341 311 305 317 277 286 289
15 245 346 43 204 7 346 344 330 289 292 287 284 283 301 319 298 288 270 291 329 320 299 322 276 281 298 289 268 285 287 286 262 278 289 290 283 279 292 313 322 303 274 267 276
342 315 349 31 -0 357 340 286 275 299 309 295 285 283 312 294 303 267 274 294 312 320 336 301 265 298 299 293 183 285 302 290 282 280 272 265 271 298 303 300 290 289 281 264 265
347 315 18 49 54 339 337 294 296 279 283 256 281 293 303 293 281 278 291 302 295 303 293 289 260 263 276 289 304 297 293 282 271 265 286 282 290 301 295 290 295 295 290 284 283
7 34 351 323 32 326 286 286 302 313 269 292 268 247 324 287 296 283 290 304 302 298 276 266 275 293 288 288 288 285 287 295 289 276 273 287 290 293 305 310 305 300 294 286 278
2 349 322 293 292 293 166 271 294 295 305 283 276 310 297 286 285 292 296 292 299 293 285 251 285 296 287 286 290 304 303 294 291 286 284 286 289 290 309 299 295 288 280 274 269
11 339 314 294 303 294 339 314 305 313 277 252 301 305 294 289 291 285 285 284 276 278 284 267 261 288 289 302 308 291 356 300 285 290 279 280 290 301 294 292 295 291 283 278 275